[[{"header":{"parameterUnit":"m.s-1","parameterCategory":1,"la1":30.2991,"la2":30.254,"lo1":-89.0895,"lo2":-89.0444,"dy":0.0017,"dx":0.0017,"nx":28,"ny":28,"refTime":"2025-03-25T21:00:00:Z","depth":0,"parameterNumber":2,"parameterNumberName":"U-component_of_WINDS"},"data":[0,0,0,0,0,0,0,0,0,0,0,0,0,0,0,0,0,0,0,0,0,0,0,0,0,0,0,0,0,0,0,0,0,0,0,0,0,0,0,0,0,0,0,0,0,0,0,0,0,0,0,0,0,0,0,0,0,0,1.2916,1.2917,0,1.2947,1.2947,1.2948,1.2899,1.2898,1.2896,1.2894,1.2931,1.2934,1.2936,0,0,0,0,0,0,0,0,0,0,0,0,0,1.2819,1.2821,1.2916,1.2917,1.2917,1.2947,1.2947,1.2948,1.29,1.2897,1.2895,1.2893,1.293,1.2933,1.2936,0,0,0,0,0,0,0,0,0,0,0,0,0,1.2857,1.2821,1.2916,1.2896,1.2895,1.2947,1.2947,1.2948,1.29,1.2897,1.2895,1.2892,1.2929,1.2933,1.2937,1.3011,0,0,1.2949,1.295,0,0,0,0,0,0,0,0,1.2855,1.286,1.2899,1.2898,1.2896,1.2917,1.2927,1.2969,1.2901,1.2898,1.2894,1.2891,1.2929,1.2932,1.2944,1.3013,1.3015,1.2949,1.2951,1.2953,1.2954,0,0,0,0,0,0,0,1.2852,1.2859,1.2929,1.2899,1.2898,1.2887,1.289,1.2934,1.2928,1.2898,1.2895,1.2899,1.2928,1.294,1.2944,1.3015,1.2949,1.2952,1.2955,1.2956,1.3146,1.3148,0,0,0,0,0,0,1.2851,1.2857,1.2928,1.2929,1.2868,1.2891,1.2894,1.2913,1.2927,1.2926,1.2901,1.2896,1.2935,1.294,1.2946,1.3033,1.2953,1.2956,1.2959,1.3143,1.3146,1.3149,0,0,0,0,0,0,1.2849,1.2858,1.2926,1.2892,1.29,1.2895,1.2917,1.2915,1.2927,1.2929,1.2928,1.2915,1.2933,1.294,1.2995,1.3033,1.2958,1.2962,1.314,1.3144,1.3148,1.3208,0,0,0,0,0,0,1.2847,1.2857,1.2885,1.2893,1.2902,1.2974,1.2919,1.2917,1.2934,1.2928,1.2942,1.2942,1.2932,1.2989,1.2998,1.3037,1.2965,1.3136,1.3142,1.3146,1.3203,1.3214,1.3224,0,0,0,0,0,1.2843,1.2903,1.2887,1.2896,1.2936,1.2976,1.2982,1.2967,1.2937,1.2965,1.2965,1.2941,1.3027,1.2995,1.3005,1.3046,1.3134,1.314,1.3146,1.3198,1.3212,1.3223,0,0,0,0,0,0,1.2902,1.2903,1.2886,1.2949,1.2963,1.2968,1.3003,1.2983,1.3007,1.3001,1.2983,1.2987,1.3045,1.3051,1.3015,1.3118,1.3076,1.3084,1.3112,1.3125,1.3135,1.3133,1.2968,0,0,0,0,0,1.2921,1.2952,1.2953,1.3009,1.3016,1.3008,1.3026,1.3013,1.3027,1.3033,1.3038,1.3054,1.3084,1.3105,1.3133,1.3203,1.3206,1.3236,1.3247,1.3255,1.3263,1.3299,1.3313,1.3169,1.3169,1.3169,0,0,1.2964,1.2968,1.2989,1.302,1.3029,1.3063,1.3014,1.3052,1.3077,1.304,1.309,1.3095,1.3111,1.3173,1.3201,1.318,1.3302,1.3263,1.327,1.3273,1.3307,1.332,1.3333,1.3173,1.3173,1.3172,0,0,1.3057,1.3064,1.311,1.312,1.3133,1.3127,1.3138,1.3146,1.3147,1.3197,1.317,1.32,1.3253,1.3265,1.3278,1.3374,1.3353,1.3384,1.3439,1.3474,1.3486,1.3496,1.3529,1.3542,1.3392,1.3392,1.3392,0,1.3108,1.3156,1.3137,1.3176,1.3191,1.3156,1.3203,1.3214,1.3237,1.3248,1.3224,1.3288,1.3297,1.3361,1.3384,1.3396,1.3409,1.3383,1.3485,1.3495,1.3504,1.3536,1.3549,1.3396,1.3395,1.3395,1.3395,0,1.3218,1.3251,1.3288,1.3308,1.3326,1.337,1.3358,1.3379,1.3365,1.3362,1.3413,1.3422,1.3451,1.3465,1.3453,1.3527,1.3514,1.3488,1.3445,1.3522,1.3551,1.3564,1.3401,1.34,1.3399,1.3398,0,0,1.335,1.3358,1.3371,1.3379,1.3391,1.3417,1.3458,1.3484,1.3503,1.3519,1.3554,1.3598,1.3574,1.3589,1.3577,1.3609,1.3683,1.3578,1.3579,1.3597,1.3765,1.3785,1.3799,1.3668,1.3671,1.3672,1.3764,0,1.3443,1.3512,1.3496,1.3565,1.3595,1.3562,1.3598,1.361,1.3608,1.3634,1.3633,1.3664,1.3629,1.3638,1.3667,1.3668,1.3717,1.3661,1.3701,1.3703,1.3698,1.3815,1.3836,1.3921,1.3775,1.3777,1.3779,0,1.356,1.3578,1.365,1.3655,1.3667,1.37,1.3721,1.3747,1.3759,1.3755,1.3771,1.3753,1.3794,1.375,1.3808,1.377,1.3785,1.3788,1.3791,1.3794,1.3746,1.3821,1.3948,1.3961,1.3797,1.3795,1.3794,0,1.3649,1.3692,1.3739,1.3748,1.3755,1.3778,1.3782,1.3792,1.3808,1.3827,1.3838,1.3863,1.3876,1.3896,1.3886,1.3855,1.3945,1.39,1.3943,1.3944,1.3964,1.3963,1.4096,1.3974,1.3974,1.3974,1.3974,0,1.3754,1.3799,1.3779,1.3809,1.3858,1.3839,1.3889,1.3889,1.3898,1.3927,1.3901,1.393,1.3913,1.3941,1.3933,1.3981,1.3988,1.3987,1.3984,1.3989,1.3989,1.3999,1.3993,1.3977,1.3976,1.3976,1.3975,0,1.3861,1.385,1.39,1.3901,1.3903,1.3939,1.3941,1.3969,1.3964,1.4002,1.401,1.4003,1.4034,1.4024,1.4059,1.4053,1.4114,1.4104,1.4109,1.4107,1.415,1.4146,1.4294,1.4312,1.4179,1.4181,1.4182,0,1.3929,1.3962,1.3967,1.3984,1.3989,1.4017,1.4033,1.4015,1.4033,1.4048,1.4074,1.4102,1.4124,1.4175,1.4174,1.4199,1.419,1.4239,1.4194,1.4197,1.419,1.4188,1.4191,1.4249,1.4251,1.4252,1.4253,0,1.405,1.4042,1.4065,1.4085,1.4104,1.412,1.4133,1.4149,1.4132,1.4153,1.4183,1.42,1.4233,1.4262,1.4285,1.429,1.4269,1.4267,1.4278,1.4284,1.4285,1.4285,1.4134,1.4264,1.4263,1.4262,1.4261,1.4261,1.414,1.4167,1.4174,1.42,1.4207,1.422,1.4246,1.4243,1.4267,1.4292,1.428,1.4315,1.4325,1.4353,1.4362,1.4389,1.4371,1.4387,1.4391,1.4396,1.4401,1.4281,1.4394,1.4393,1.4393,1.4393,1.4393,0,1.4259,1.4261,1.4285,1.4303,1.4323,1.4299,1.4313,1.4332,1.4362,1.4372,1.4393,1.4428,1.4454,1.4454,1.448,1.4502,1.4493,1.4509,1.4507,1.4509,1.4417,1.4404,1.4516,1.4516,1.4516,1.4516,1.4516,1.4516,1.4323,1.4368,1.4361,1.441,1.4412,1.4444,1.4454,1.4465,1.4473,1.4512,1.4533,1.4532,1.4539,1.4564,1.4588,1.4587,1.4598,1.4618,1.4614,1.4528,1.4515,1.4504,1.4492,1.462,1.462,1.4703,1.4704,1.4705]},{"header":{"parameterUnit":"m.s-1","parameterCategory":1,"la1":30.2991,"la2":30.254,"lo1":-89.0895,"lo2":-89.0444,"dy":0.0017,"dx":0.0017,"nx":28,"ny":28,"refTime":"2025-03-25T21:00:00:Z","depth":0,"parameterNumber":3,"parameterNumberName":"V-component_of_WINDS"},"data":[0,0,0,0,0,0,0,0,0,0,0,0,0,0,0,0,0,0,0,0,0,0,0,0,0,0,0,0,0,0,0,0,0,0,0,0,0,0,0,0,0,0,0,0,0,0,0,0,0,0,0,0,0,0,0,0,0,0,2.1113,2.1113,0,2.1172,2.1173,2.1174,2.1157,2.1156,2.1154,2.1153,2.1212,2.1215,2.1217,0,0,0,0,0,0,0,0,0,0,0,0,0,2.0982,2.0985,2.1113,2.1113,2.1114,2.1172,2.1173,2.1174,2.1157,2.1155,2.1154,2.1153,2.1211,2.1214,2.1218,0,0,0,0,0,0,0,0,0,0,0,0,0,2.104,2.0985,2.1112,2.1113,2.1113,2.1172,2.1173,2.1174,2.1157,2.1155,2.1154,2.1152,2.121,2.1214,2.1218,2.1279,0,0,2.123,2.1232,0,0,0,0,0,0,0,0,2.1037,2.1045,2.1112,2.1113,2.1114,2.1155,2.1148,2.1209,2.1158,2.1141,2.1153,2.1151,2.1194,2.12,2.1215,2.1282,2.1285,2.1231,2.1233,2.1235,2.1236,0,0,0,0,0,0,0,2.1033,2.1042,2.1136,2.1113,2.1114,2.1109,2.1115,2.116,2.1177,2.1142,2.1141,2.1148,2.1195,2.1211,2.1216,2.1285,2.1231,2.1234,2.1237,2.1238,2.1405,2.1407,0,0,0,0,0,0,2.1028,2.1039,2.1134,2.1138,2.107,2.1113,2.112,2.1144,2.1176,2.118,2.115,2.1147,2.1205,2.1211,2.1218,2.1292,2.1235,2.1239,2.1241,2.1403,2.1406,2.1408,0,0,0,0,0,0,2.1026,2.1037,2.1132,2.1088,2.11,2.1117,2.1144,2.1146,2.1162,2.1182,2.1185,2.1163,2.1204,2.1212,2.1264,2.1293,2.1241,2.1244,2.1401,2.1404,2.1407,2.144,0,0,0,0,0,0,2.1022,2.1036,2.106,2.1089,2.1102,2.1178,2.1146,2.1148,2.1169,2.1167,2.1196,2.1199,2.1203,2.1258,2.1268,2.1298,2.1247,2.1398,2.1402,2.1406,2.1436,2.1443,2.145,0,0,0,0,0,2.1017,2.1066,2.1061,2.1073,2.1133,2.1179,2.1187,2.1191,2.1172,2.1196,2.1209,2.1198,2.1289,2.1264,2.1275,2.1306,2.1397,2.1401,2.1406,2.1433,2.1442,2.1449,0,0,0,0,0,0,2.104,2.107,2.1065,2.1125,2.115,2.1177,2.1207,2.1201,2.1231,2.1227,2.123,2.1237,2.129,2.1303,2.1275,2.1367,2.134,2.1347,2.1357,2.1365,2.1372,2.1368,2.1251,0,0,0,0,0,2.1052,2.1088,2.1112,2.1163,2.1176,2.1189,2.121,2.1211,2.1237,2.1247,2.1264,2.1288,2.1322,2.1344,2.1377,2.1438,2.1443,2.1465,2.1472,2.1477,2.1483,2.1516,2.1525,2.1423,2.1423,2.1423,0,0,2.1077,2.1098,2.1121,2.1168,2.1188,2.1224,2.1198,2.1238,2.1265,2.1253,2.1303,2.1316,2.1344,2.14,2.1426,2.1413,2.1513,2.1483,2.1487,2.149,2.1521,2.1531,2.154,2.1426,2.1425,2.1425,0,0,2.1142,2.1162,2.1206,2.1226,2.1256,2.1265,2.1275,2.1303,2.1312,2.1362,2.1353,2.1385,2.1444,2.1464,2.1482,2.1554,2.1545,2.1564,2.16,2.1632,2.164,2.1647,2.1672,2.1682,2.157,2.157,2.157,0,2.1169,2.1225,2.1229,2.127,2.1291,2.1282,2.1327,2.1346,2.1384,2.1399,2.1384,2.1457,2.1475,2.1536,2.1554,2.1568,2.158,2.1561,2.1639,2.1646,2.1652,2.1677,2.1686,2.1572,2.1572,2.1572,2.1572,0,2.1257,2.1296,2.1328,2.1366,2.1391,2.1433,2.1443,2.1467,2.1466,2.1476,2.1528,2.1549,2.1585,2.16,2.1599,2.1661,2.1652,2.1638,2.161,2.1664,2.1687,2.1697,2.1575,2.1574,2.1574,2.1573,0,0,2.1337,2.1378,2.1389,2.1407,2.1439,2.1469,2.1511,2.1547,2.1568,2.1595,2.1629,2.1679,2.1666,2.1687,2.1688,2.1716,2.1771,2.1698,2.1699,2.1711,2.184,2.1851,2.1861,2.1766,2.1768,2.1769,2.1838,0,2.1404,2.1479,2.1484,2.1551,2.1587,2.1579,2.1615,2.1638,2.1649,2.168,2.1691,2.1726,2.1707,2.1719,2.1746,2.1759,2.1797,2.1754,2.1797,2.1799,2.1791,2.1873,2.1884,2.1948,2.1847,2.1848,2.1849,0,2.1493,2.1523,2.1594,2.1622,2.1637,2.1669,2.1703,2.1733,2.1759,2.1765,2.1788,2.1785,2.1827,2.1798,2.1856,2.1826,2.1844,2.1853,2.1856,2.186,2.1827,2.1879,2.1969,2.1978,2.1864,2.1862,2.1861,0,2.1544,2.1603,2.1653,2.1668,2.1701,2.1724,2.1739,2.1764,2.1785,2.1814,2.1828,2.1861,2.188,2.1905,2.1911,2.189,2.1969,2.1941,2.1974,2.1974,2.1991,2.199,2.2084,2.2003,2.2003,2.2002,2.2002,0,2.1618,2.1662,2.1676,2.1707,2.1755,2.176,2.1808,2.1821,2.1843,2.1875,2.187,2.1901,2.1907,2.1939,2.1943,2.199,2.1998,2.2004,2.2004,2.2004,2.2003,2.2016,2.2011,2.2005,2.2004,2.2004,2.2003,0,2.1684,2.1695,2.1749,2.1776,2.1784,2.1819,2.1842,2.1871,2.1881,2.1922,2.1932,2.1947,2.1984,2.1992,2.2036,2.2039,2.2095,2.2091,2.2086,2.2086,2.2119,2.2115,2.2224,2.2239,2.2148,2.2149,2.215,0,2.173,2.1764,2.1795,2.1817,2.1833,2.1868,2.189,2.1897,2.192,2.1952,2.1977,2.2014,2.2043,2.2102,2.2116,2.215,2.2147,2.2183,2.2152,2.215,2.2147,2.2145,2.2148,2.2188,2.2189,2.219,2.2191,0,2.1812,2.1816,2.1848,2.1883,2.191,2.1937,2.1964,2.1982,2.1991,2.2017,2.2056,2.2078,2.2123,2.2159,2.2193,2.2207,2.2201,2.2201,2.221,2.221,2.2206,2.2208,2.2102,2.2198,2.2197,2.2197,2.2196,2.2196,2.1869,2.1898,2.1925,2.1961,2.1982,2.2007,2.2035,2.2049,2.2081,2.2119,2.212,2.2162,2.2187,2.2231,2.2247,2.2279,2.2268,2.2282,2.2285,2.2288,2.2291,2.2201,2.2285,2.2285,2.2285,2.2285,2.2284,0,2.195,2.1967,2.2,2.2038,2.2066,2.2059,2.2087,2.2111,2.2148,2.2172,2.2202,2.2245,2.228,2.2297,2.2332,2.2354,2.2352,2.2363,2.2361,2.2364,2.2299,2.2288,2.2364,2.2364,2.2364,2.2364,2.2364,2.2364,2.1995,2.2045,2.2052,2.2111,2.2127,2.2169,2.2186,2.2208,2.2227,2.2277,2.2306,2.2317,2.2339,2.2375,2.2406,2.241,2.2423,2.2435,2.2438,2.2377,2.2369,2.2361,2.235,2.2438,2.2438,2.25,2.25,2.2501]}]]